This is the latest recevied weather packets stored in our database for station/object KD2VWU. If no packets are shown the sender has not sent any weather packets the latest 10 day(s).
| Time | Temp. | Humidity | Pressure | Rain* | Wind** | Luminosity | Snow |
|---|---|---|---|---|---|---|---|
| 1777880467 | 5° C | 82% | 1009.2 hPa | 0 mm | - | - | - |
| 1777880165 | 4.44° C | 84% | 1009.5 hPa | 0 mm | - | - | - |
| 1777879863 | 5° C | 83% | 1009.7 hPa | 0 mm | - | - | - |
| 1777879561 | 5° C | 81% | 1009.4 hPa | 0 mm | - | - | - |
| 1777879257 | 5° C | 80% | 1009.5 hPa | 0 mm | - | - | - |
| 1777878955 | 5° C | 80% | 1009.5 hPa | 0 mm | - | - | - |
| 1777878651 | 5° C | 78% | 1009.5 hPa | 0 mm | - | - | - |
| 1777878349 | 5° C | 77% | 1009.7 hPa | 0 mm | - | - | - |
| 1777878044 | 5.56° C | 78% | 1009.3 hPa | 0 mm | - | - | - |
| 1777877741 | 5.56° C | 75% | 1009.4 hPa | 0 mm | - | - | - |
| 1777877438 | 5.56° C | 76% | 1009.4 hPa | 0 mm | - | - | - |
| 1777877135 | 5.56° C | 76% | 1009.4 hPa | 0 mm | - | - | - |
| 1777876832 | 5.56° C | 75% | 1009.4 hPa | 0 mm | - | - | - |
| 1777876530 | 5.56° C | 74% | 1009.4 hPa | 0 mm | - | - | - |
| 1777876227 | 5.56° C | 74% | 1009.2 hPa | 0 mm | - | - | - |
| 1777875923 | 5.56° C | 75% | 1009.4 hPa | 0 mm | - | - | - |
| 1777875619 | 5.56° C | 75% | 1009.4 hPa | 0 mm | - | - | - |
| 1777875316 | 5.56° C | 76% | 1009.4 hPa | 0 mm | - | - | - |
| 1777875013 | 5° C | 78% | 1009.4 hPa | 0 mm | - | - | - |
| 1777874709 | 5° C | 82% | 1009.6 hPa | 0 mm | - | - | - |
| 1777874405 | 5° C | 83% | 1009.5 hPa | 0 mm | - | - | - |
| 1777874103 | 4.44° C | 83% | 1009.5 hPa | 0 mm | - | - | - |
| 1777873801 | 4.44° C | 84% | 1009.5 hPa | 0 mm | - | - | - |
| 1777873497 | 4.44° C | 82% | 1009.2 hPa | 0 mm | - | - | - |
| 1777873194 | 5° C | 81% | 1009.3 hPa | 0 mm | - | - | - |
* Rain latest hour (hover to see other rain measurements)
** Current wind speed in m/s (hover to see current wind gust speed)